• In Netherlands
  • List of Countries
  • For 7 days
  • Water Temperature
  • Satellite Maps
  • Weather Map
  • Weather Widgets
  • user-avatar
    Login

    Hourly Weather Mazari Sharif

    Today, 29 March, Wednesday

    Time Temperature Precipitation Wind Pressure Humidity
    00:00 +15°C° 0.2 mm 1 mps 656 mmHg 55%
    01:00 +14°C° 0.2 mm 1 mps 656 mmHg 55%
    02:00 +14°C° 0.2 mm 1 mps 656 mmHg 55%
    03:00 +14°C° 0.2 mm 2 mps 656 mmHg 56%
    04:00 +13°C° 0 mm 2 mps 656 mmHg 57%
    05:00 +14°C° 0 mm 2 mps 656 mmHg 55%
    06:00 +15°C° 0 mm 2 mps 656 mmHg 53%
    07:00 +16°C° 0 mm 2 mps 657 mmHg 51%
    08:00 +17°C° 0.1 mm 2 mps 657 mmHg 46%
    09:00 +19°C° 0.1 mm 3 mps 657 mmHg 42%
    10:00 +20°C° 0 mm 3 mps 657 mmHg 38%
    11:00 +21°C° 0.2 mm 3 mps 657 mmHg 37%
    12:00 +22°C° 0.2 mm 3 mps 656 mmHg 36%
    13:00 +22°C° 0.2 mm 3 mps 656 mmHg 35%
    14:00 +22°C° 0.3 mm 3 mps 656 mmHg 36%
    15:00 +22°C° 0.3 mm 3 mps 655 mmHg 37%
    16:00 +21°C° 0.3 mm 3 mps 655 mmHg 39%
    17:00 +20°C° 0.3 mm 3 mps 655 mmHg 44%
    18:00 +19°C° 0.3 mm 2 mps 655 mmHg 49%
    19:00 +19°C° 0.3 mm 1 mps 655 mmHg 54%
    20:00 +19°C° 0.3 mm 1 mps 655 mmHg 55%
    21:00 +18°C° 0.3 mm 1 mps 654 mmHg 57%
    22:00 +18°C° 0.3 mm 1 mps 654 mmHg 58%
    23:00 +16°C° 0.5 mm 2 mps 655 mmHg 60%

    Tomorrow, 30 March, Thursday

    Time Temperature Precipitation Wind Pressure Humidity
    00:00 +15°C° 0.5 mm 2 mps 655 mmHg 62%
    01:00 +15°C° 0.5 mm 2 mps 655 mmHg 64%
    02:00 +13°C° 1.1 mm 3 mps 655 mmHg 72%
    03:00 +12°C° 1.1 mm 5 mps 655 mmHg 79%
    04:00 +10°C° 1.1 mm 6 mps 656 mmHg 87%
    05:00 +9°C° 1.5 mm 5 mps 657 mmHg 88%
    06:00 +10°C° 1.5 mm 4 mps 658 mmHg 89%
    07:00 +10°C° 1.5 mm 3 mps 658 mmHg 89%
    08:00 +10°C° 0.9 mm 3 mps 659 mmHg 87%
    09:00 +10°C° 0.9 mm 4 mps 659 mmHg 85%
    10:00 +10°C° 0.9 mm 4 mps 660 mmHg 82%
    11:00 +11°C° 0.7 mm 4 mps 660 mmHg 79%
    12:00 +11°C° 0.7 mm 4 mps 660 mmHg 75%
    13:00 +11°C° 0.7 mm 4 mps 660 mmHg 71%
    14:00 +12°C° 0.4 mm 3 mps 659 mmHg 68%
    15:00 +12°C° 0.4 mm 3 mps 659 mmHg 66%
    16:00 +12°C° 0.4 mm 3 mps 659 mmHg 63%
    17:00 +12°C° 0.2 mm 2 mps 659 mmHg 66%
    18:00 +12°C° 0.2 mm 2 mps 659 mmHg 68%
    19:00 +11°C° 0.2 mm 1 mps 659 mmHg 70%
    20:00 +11°C° 0.2 mm 1 mps 659 mmHg 72%
    21:00 +11°C° 0.2 mm 1 mps 658 mmHg 74%
    22:00 +11°C° 0.2 mm 1 mps 658 mmHg 76%
    23:00 +10°C° 0.1 mm 1 mps 657 mmHg 78%

    Day after tomorrow, 31 March, Friday

    Time Temperature Precipitation Wind Pressure Humidity
    00:00 +10°C° 0.1 mm 1 mps 657 mmHg 79%
    01:00 +10°C° 0.1 mm 1 mps 656 mmHg 80%
    02:00 +10°C° 0.2 mm 1 mps 656 mmHg 81%
    03:00 +9°C° 0.2 mm 1 mps 655 mmHg 83%
    04:00 +9°C° 0.2 mm 1 mps 655 mmHg 85%
    05:00 +10°C° 0.3 mm 1 mps 655 mmHg 81%
    06:00 +11°C° 0.3 mm 1 mps 655 mmHg 78%
    07:00 +11°C° 0.3 mm 1 mps 656 mmHg 74%
    08:00 +13°C° 0.1 mm 1 mps 656 mmHg 68%
    09:00 +14°C° 0.1 mm 1 mps 656 mmHg 62%
    10:00 +16°C° 0.1 mm 1 mps 657 mmHg 55%
    11:00 +17°C° 0 mm 2 mps 657 mmHg 51%
    12:00 +18°C° 0 mm 2 mps 656 mmHg 47%
    13:00 +19°C° 0 mm 2 mps 656 mmHg 43%
    14:00 +19°C° 0.3 mm 2 mps 656 mmHg 43%
    15:00 +19°C° 0.3 mm 2 mps 656 mmHg 43%
    16:00 +19°C° 0.3 mm 2 mps 656 mmHg 43%
    17:00 +17°C° 0.2 mm 2 mps 657 mmHg 49%
    18:00 +16°C° 0.2 mm 1 mps 657 mmHg 54%
    19:00 +15°C° 0.2 mm 1 mps 657 mmHg 60%
    20:00 +15°C° 0 mm 1 mps 657 mmHg 59%
    21:00 +14°C° 0 mm 1 mps 658 mmHg 59%
    22:00 +14°C° 0 mm 1 mps 658 mmHg 59%
    23:00 +14°C° 0.2 mm 1 mps 658 mmHg 59%

    1 April, Saturday

    Time Temperature Precipitation Wind Pressure Humidity
    00:00 +14°C° 0.2 mm 1 mps 658 mmHg 59%
    01:00 +13°C° 0.2 mm 1 mps 658 mmHg 59%
    02:00 +13°C° 0.2 mm 1 mps 658 mmHg 60%
    03:00 +12°C° 0.2 mm 1 mps 658 mmHg 60%
    04:00 +12°C° 0.2 mm 1 mps 658 mmHg 61%
    05:00 +13°C° 0.2 mm 1 mps 658 mmHg 58%
    06:00 +14°C° 0.2 mm 1 mps 659 mmHg 55%
    07:00 +15°C° 0.2 mm 1 mps 659 mmHg 53%
    08:00 +16°C° 0 mm 2 mps 660 mmHg 47%
    09:00 +17°C° 0 mm 2 mps 660 mmHg 41%
    10:00 +19°C° 0 mm 2 mps 660 mmHg 35%
    11:00 +19°C° 0.1 mm 3 mps 660 mmHg 34%
    12:00 +20°C° 0.1 mm 3 mps 659 mmHg 33%
    13:00 +21°C° 0.1 mm 3 mps 659 mmHg 32%
    14:00 +21°C° 0.2 mm 4 mps 658 mmHg 33%
    15:00 +21°C° 0.2 mm 4 mps 658 mmHg 35%
    16:00 +21°C° 0.2 mm 4 mps 657 mmHg 36%
    17:00 +19°C° 0 mm 4 mps 657 mmHg 42%
    18:00 +18°C° 0 mm 3 mps 656 mmHg 47%
    19:00 +17°C° 0 mm 2 mps 656 mmHg 52%
    20:00 +17°C° 0 mm 2 mps 656 mmHg 52%
    21:00 +17°C° 0 mm 2 mps 655 mmHg 52%
    22:00 +16°C° 0 mm 2 mps 655 mmHg 52%
    23:00 +16°C° 0 mm 2 mps 655 mmHg 51%

    2 April, Sunday

    Time Temperature Precipitation Wind Pressure Humidity
    00:00 +16°C° 0 mm 2 mps 654 mmHg 50%
    01:00 +15°C° 0 mm 2 mps 654 mmHg 49%
    02:00 +15°C° 0.2 mm 2 mps 654 mmHg 50%
    03:00 +15°C° 0.2 mm 2 mps 654 mmHg 51%
    04:00 +14°C° 0.2 mm 1 mps 654 mmHg 52%
    05:00 +15°C° 0.2 mm 1 mps 654 mmHg 51%
    06:00 +15°C° 0.2 mm 1 mps 655 mmHg 51%
    07:00 +16°C° 0.2 mm 1 mps 655 mmHg 51%
    08:00 +18°C° 0.1 mm 1 mps 655 mmHg 46%
    09:00 +19°C° 0.1 mm 1 mps 656 mmHg 41%
    10:00 +20°C° 0.1 mm 1 mps 656 mmHg 36%
    11:00 +20°C° 0.1 mm 2 mps 655 mmHg 34%
    12:00 +20°C° 0.1 mm 2 mps 655 mmHg 33%
    13:00 +21°C° 0.1 mm 3 mps 654 mmHg 31%
    14:00 +21°C° 0.2 mm 3 mps 654 mmHg 34%
    15:00 +20°C° 0.2 mm 3 mps 653 mmHg 37%
    16:00 +19°C° 0.2 mm 3 mps 653 mmHg 40%
    17:00 +18°C° 0.4 mm 3 mps 652 mmHg 46%
    18:00 +17°C° 0.4 mm 2 mps 652 mmHg 52%
    19:00 +16°C° 0.4 mm 2 mps 652 mmHg 58%
    20:00 +14°C° 0.5 mm 3 mps 652 mmHg 63%
    21:00 +13°C° 0.5 mm 3 mps 652 mmHg 68%
    22:00 +12°C° 0.5 mm 4 mps 652 mmHg 73%
    23:00 +10°C° 0.4 mm 5 mps 652 mmHg 77%

    3 April, Monday

    Time Temperature Precipitation Wind Pressure Humidity
    00:00 +9°C° 0.4 mm 5 mps 652 mmHg 81%
    01:00 +8°C° 0.4 mm 6 mps 652 mmHg 85%
    02:00 +8°C° 0.1 mm 6 mps 653 mmHg 86%
    03:00 +7°C° 0.1 mm 5 mps 653 mmHg 86%
    04:00 +7°C° 0.1 mm 5 mps 653 mmHg 87%
    05:00 +6°C° 0.1 mm 5 mps 654 mmHg 85%
    06:00 +6°C° 0.1 mm 5 mps 654 mmHg 84%
    07:00 +5°C° 0.1 mm 5 mps 655 mmHg 83%
    08:00 +6°C° 0 mm 5 mps 655 mmHg 78%
    09:00 +6°C° 0 mm 5 mps 655 mmHg 74%
    10:00 +6°C° 0 mm 5 mps 655 mmHg 70%
    11:00 +6°C° 0 mm 5 mps 655 mmHg 68%
    12:00 +7°C° 0 mm 5 mps 655 mmHg 65%
    13:00 +7°C° 0 mm 5 mps 655 mmHg 62%
    14:00 +7°C° 0.1 mm 5 mps 655 mmHg 62%
    15:00 +6°C° 0.1 mm 5 mps 655 mmHg 61%
    16:00 +6°C° 0.1 mm 4 mps 655 mmHg 61%
    17:00 +6°C° 0.1 mm 4 mps 655 mmHg 62%
    18:00 +5°C° 0.1 mm 4 mps 655 mmHg 62%
    19:00 +5°C° 0.1 mm 3 mps 655 mmHg 63%
    20:00 +4°C° 0.1 mm 3 mps 655 mmHg 63%
    21:00 +4°C° 0.1 mm 3 mps 655 mmHg 64%
    22:00 +4°C° 0.1 mm 3 mps 655 mmHg 65%
    23:00 +4°C° 0.1 mm 3 mps 655 mmHg 65%
    Show more